Voltar ao catálogo

STARLINK-11640

AtivoComunicaçõesVLEO
NORAD 63314·PAYLOAD·🇺🇸 United States

Lançado Mar 18, 2025 de Cape Canaveral Space Force Station

Loading…

Próximas Passagens (próximas 24 horas)

TLE

AtualizadoSource: CelesTrak SupGP

Época: Sep 14, 2026, 22:17 UTC

1 63314C 25057H   26257.92895833  .00039431  00000+0  30624-3 0  2579
2 63314  43.0006 203.9739 0001375 251.3703 292.2804 15.70820603    12

Acompanhe STARLINK-11640 em tempo real com AllMySat

Download on the App Store